User: anonymous   Login
Location: Unspecified
(0.0000°N, 0.0000°E)
Time: 11:13:43
(UTC+00:00)
Language:

GONETS M 12 (M22) - Orbit

View from above orbital plane
View from above orbital plane
View from above satellite
View from above satellite

Ground track
Ground track

The orbit data is extracted from the following two-line orbital elements,

1 40553U 15020B   18175.17293865  .00000036  00000-0  19054-3 0  9999
2 40553  82.4900  47.5308 0013160 224.1210 135.8820 12.42872262146657
Epoch (UTC): 24 June 2018 04:09:01
Eccentricity: 0.0013160
inclination: 82.4900°
perigee height: 1484 km
apogee height: 1505 km
right ascension of ascending node: 47.5308°
argument of perigee: 224.1210°
revolutions per day: 12.42872262
mean anomaly at epoch: 135.8820°
orbit number at epoch: 14665

The dashed part of the orbit path shows where the satellite is in the earth's shadow,  

DLR